カタログに戻る

STARLINK-30288

運用中通信VLEO
NORAD 57698·PAYLOAD·🇺🇸 United States

打ち上げ Aug 27, 2023 から Cape Canaveral Space Force Station

Loading…

次のパス (今後24時間)

TLE

最新Source: CelesTrak SupGP

元期: Sep 14, 2026, 22:15 UTC

1 57698C 23129A   26257.92756944  .00007049  00000+0  25538-3 0  2572
2 57698  43.0007 129.5723 0001361 270.9482 303.2247 15.27565397    15

AllMySatでSTARLINK-30288をリアルタイム追跡

Download on the App Store